Simultaneous Nadir Overpasses (SNOs) Predictions

Prediction of SNOs between GOES-14 and NOAA-20 Satellite Orbit:

Table of predicted SNOs for the next 14.0 days since TLE Epoch: 3/18/2023
Index Date Time (GOES-14) GOES-14 Lat,Lon NOAA-20 Lat,Lon Distance(km) Time Diff (sec)
1 03/19/2023 08:39:34 0.13,-107.92 0.20,-108.20 31.59 80
2 03/20/2023 08:18:10 0.13,-107.92 -0.80,-103.66 485.14 80
3 03/21/2023 20:40:07 -0.14,-107.99 -0.36,-108.97 112.44 80
4 03/22/2023 20:24:02 -0.13,-108.00 0.64,-104.44 405.28 80
5 03/24/2023 08:45:51 0.14,-107.97 0.53,-109.71 197.82 80
6 03/25/2023 08:24:26 0.13,-107.98 -0.47,-105.17 319.05 80
7 03/26/2023 20:46:24 -0.14,-108.03 -0.67,-110.49 279.87 80
8 03/27/2023 20:30:19 -0.14,-108.04 0.34,-105.95 237.82 80
9 03/29/2023 08:52:06 0.15,-108.02 0.89,-111.21 364.14 80
10 03/30/2023 08:30:42 0.15,-108.02 -0.13,-106.68 152.73 80
11 03/31/2023 20:52:38 -0.16,-108.06 -1.06,-111.98 447.48 80
